Tracking 20724 objects as of 3-Jun-2020
HD Live streaming from Space Station
objects crossing your sky now

ONEWEB-0068

Track ONEWEB-0068 now!
10-day predictions
ONEWEB-0068 is classified as:


NORAD ID: 45446
Int'l Code: 2020-020Y
Perigee: 583.6 km
Apogee: 624.6 km
Inclination: 87.5 °
Period: 96.6 minutes
Semi major axis: 6975 km
RCS: Unknown
Launch date: March 21, 2020
Source: United Kingdom (UK)
Launch site: TYURATAM MISSILE AND SPACE COMPLEX (TTMTR)
aabbcc
Your satellite tracking list
Your tracking list is empty




NASA's NSSDC Master Catalog

Two Line Element Set (TLE):
1 45446U 20020Y   20155.16667824  .00011832  00000-0  12049-2 0  9993
2 45446  87.5445 114.2521 0029360  33.9623 327.3487 14.90306948 11077
Source of the keplerian elements: AFSPC